| time (UTC) | temp C | wind direction | speed KPH | gust KPH | rain 1hr cm | rain 24hr cm | rain mn cm | humidity % | barometer mb |
| 20260506024539 | 22 | 60 | 0.0 | 4.8 | 0.00 | 0.00 | 0.00 | 47 | 1018.5 |
| 20260506023015 | 22 | 64 | 0.0 | 1.6 | 0.00 | 0.00 | 0.00 | 45 | 1018.4 |
| 20260506021514 | 23 | 39 | 0.0 | 4.8 | 0.00 | 0.00 | 0.00 | 43 | 1018.2 |
| 20260506020013 | 23 | 76 | 0.0 | 3.2 | 0.00 | 0.00 | 0.00 | 41 | 1018.0 |
| 20260506014513 | 24 | 87 | 0.0 | 0.0 | 0.00 | 0.00 | 0.00 | 38 | 1017.8 |
| 20260506013018 | 25 | 322 | 0.0 | 0.0 | 0.00 | 0.00 | 0.00 | 36 | 1017.7 |
| 20260506011513 | 26 | 304 | 0.0 | 0.0 | 0.00 | 0.00 | 0.00 | 35 | 1017.6 |
| 20260506010012 | 26 | 32 | 0.0 | 0.0 | 0.00 | 0.00 | 0.00 | 34 | 1017.7 |
| 20260506004510 | 26 | 300 | 0.0 | 0.0 | 0.00 | 0.00 | 0.00 | 33 | 1017.6 |
| 20260506003011 | 26 | 326 | 0.0 | 1.6 | 0.00 | 0.00 | 0.00 | 33 | 1017.5 |
| 20260506001509 | 26 | 31 | 0.0 | 1.6 | 0.00 | 0.00 | 0.00 | 33 | 1017.5 |
| 20260506000009 | 26 | 104 | 0.0 | 3.2 | 0.00 | 0.00 | 0.00 | 33 | 1017.5 |
| 20260505234509 | 27 | 293 | 0.0 | 0.0 | 0.00 | 0.00 | 0.00 | 36 | 1017.5 |
| 20260505233005 | 26 | 270 | 0.0 | 6.4 | 0.00 | 0.00 | 0.00 | 34 | 1017.6 |
| 20260505231504 | 26 | 79 | 0.0 | 1.6 | 0.00 | 0.00 | 0.00 | 36 | 1017.7 |
| 20260505230005 | 26 | 271 | 0.0 | 1.6 | 0.00 | 0.00 | 0.00 | 38 | 1017.8 |
| 20260505224559 | 25 | 304 | 0.0 | 4.8 | 0.00 | 0.00 | 0.00 | 38 | 1017.9 |
| 20260505223108 | 25 | 58 | 0.0 | 3.2 | 0.00 | 0.00 | 0.00 | 39 | 1018.2 |
| 20260505221553 | 25 | 328 | 0.0 | 1.6 | 0.00 | 0.00 | 0.00 | 42 | 1018.4 |
| 20260505220051 | 24 | 23 | 0.0 | 3.2 | 0.00 | 0.00 | 0.00 | 43 | 1018.6 |
| 20260505214547 | 23 | 256 | 0.0 | 1.6 | 0.00 | 0.00 | 0.00 | 44 | 1018.6 |
| 20260505213054 | 23 | 280 | 0.0 | 4.8 | 0.00 | 0.00 | 0.00 | 45 | 1018.9 |
| 20260505211539 | 23 | 274 | 0.0 | 1.6 | 0.00 | 0.00 | 0.00 | 46 | 1019.1 |
| 20260505210036 | 22 | 146 | 0.0 | 0.0 | 0.00 | 0.00 | 0.00 | 53 | 1019.3 |
| 20260505204531 | 21 | 153 | 0.0 | 0.0 | 0.00 | 0.00 | 0.00 | 55 | 1019.5 |
| 20260505203042 | 21 | 271 | 0.0 | 1.6 | 0.00 | 0.00 | 0.00 | 59 | 1019.7 |
| 20260505201527 | 20 | 125 | 0.0 | 0.0 | 0.00 | 0.00 | 0.00 | 60 | 1019.9 |
| 20260505200033 | 20 | 262 | 0.0 | 0.0 | 0.00 | 0.00 | 0.00 | 62 | 1020.1 |
| 20260505194523 | 20 | 3 | 0.0 | 1.6 | 0.00 | 0.00 | 0.00 | 66 | 1020.2 |
| 20260505193022 | 19 | 257 | 0.0 | 0.0 | 0.00 | 0.00 | 0.00 | 61 | 1020.4 |
| 20260505191518 | 18 | 316 | 0.0 | 0.0 | 0.00 | 0.00 | 0.00 | 67 | 1020.5 |
| 20260505190018 | 18 | 293 | 0.0 | 1.6 | 0.00 | 0.00 | 0.00 | 63 | 1020.6 |
| 20260505184517 | 17 | 89 | 0.0 | 0.0 | 0.00 | 0.00 | 0.00 | 66 | 1020.7 |
| 20260505183009 | 17 | 287 | 0.0 | 0.0 | 0.00 | 0.00 | 0.00 | 69 | 1020.8 |
| 20260505181508 | 16 | 319 | 0.0 | 0.0 | 0.00 | 0.00 | 0.00 | 68 | 1021.0 |
| 20260505180006 | 16 | 254 | 0.0 | 0.0 | 0.00 | 0.00 | 0.00 | 70 | 1021.0 |
| 20260505174505 | 16 | 152 | 0.0 | 1.6 | 0.00 | 0.00 | 0.00 | 70 | 1021.1 |
| 20260505173004 | 15 | 335 | 0.0 | 0.0 | 0.00 | 0.00 | 0.00 | 73 | 1021.1 |
| 20260505171558 | 15 | 278 | 0.0 | 0.0 | 0.00 | 0.00 | 0.00 | 74 | 1021.1 |
| 20260505170057 | 14 | 219 | 0.0 | 0.0 | 0.00 | 0.00 | 0.00 | 76 | 1021.0 |
| 20260505164601 | 14 | 265 | 0.0 | 0.0 | 0.00 | 0.00 | 0.00 | 77 | 1021.1 |
| 20260505163056 | 13 | 278 | 0.0 | 0.0 | 0.00 | 0.00 | 0.00 | 80 | 1021.1 |
| 20260505161548 | 13 | 328 | 0.0 | 0.0 | 0.00 | 0.00 | 0.00 | 79 | 1021.2 |
| 20260505153057 | 13 | 252 | 0.0 | 0.0 | 0.00 | 0.00 | 0.00 | 81 | 1021.1 |
| 20260505151550 | 13 | 283 | 0.0 | 0.0 | 0.00 | 0.00 | 0.00 | 81 | 1021.1 |
| 20260505124530 | 12 | 14 | 0.0 | 0.0 | 0.00 | 0.00 | 0.00 | 83 | 1020.0 |
| 20260505123028 | 12 | 14 | 0.0 | 0.0 | 0.00 | 0.00 | 0.00 | 83 | 1019.8 |
| 20260505121530 | 12 | 14 | 0.0 | 0.0 | 0.00 | 0.00 | 0.00 | 84 | 1019.8 |
| 20260505120026 | 12 | 14 | 0.0 | 0.0 | 0.00 | 0.00 | 0.00 | 85 | 1019.7 |
| 20260505114533 | 12 | 14 | 0.0 | 0.0 | 0.00 | 0.00 | 0.00 | 84 | 1019.5 |
| 20260505113024 | 12 | 14 | 0.0 | 0.0 | 0.00 | 0.00 | 0.00 | 84 | 1019.5 |
| 20260505111532 | 12 | 14 | 0.0 | 0.0 | 0.00 | 0.00 | 0.00 | 84 | 1019.5 |
| 20260505101520 | 12 | 14 | 0.0 | 0.0 | 0.00 | 0.00 | 0.00 | 85 | 1019.3 |
| 20260505100026 | 12 | 14 | 0.0 | 0.0 | 0.00 | 0.00 | 0.00 | 84 | 1019.3 |
| 20260505094519 | 13 | 14 | 0.0 | 0.0 | 0.00 | 0.00 | 0.00 | 84 | 1019.3 |
| 20260505093018 | 13 | 14 | 0.0 | 0.0 | 0.00 | 0.00 | 0.00 | 83 | 1019.5 |
| 20260505091516 | 13 | 14 | 0.0 | 0.0 | 0.00 | 0.00 | 0.00 | 83 | 1019.5 |
| 20260505090019 | 13 | 14 | 0.0 | 0.0 | 0.00 | 0.00 | 0.00 | 83 | 1019.5 |
| 20260505084515 | 13 | 14 | 0.0 | 0.0 | 0.00 | 0.00 | 0.00 | 83 | 1019.6 |
| 20260505083022 | 13 | 14 | 0.0 | 0.0 | 0.00 | 0.00 | 0.00 | 83 | 1019.7 |
| 20260505081513 | 13 | 14 | 0.0 | 0.0 | 0.00 | 0.00 | 0.00 | 83 | 1019.7 |
| 20260505080012 | 13 | 14 | 0.0 | 0.0 | 0.00 | 0.00 | 0.00 | 83 | 1019.8 |
| 20260505074512 | 13 | 14 | 0.0 | 0.0 | 0.00 | 0.00 | 0.00 | 84 | 1019.8 |
| 20260505073011 | 13 | 14 | 0.0 | 0.0 | 0.00 | 0.00 | 0.00 | 83 | 1019.7 |
| 20260505071519 | 12 | 14 | 0.0 | 0.0 | 0.00 | 0.00 | 0.00 | 84 | 1019.7 |
| 20260505070005 | 12 | 14 | 0.0 | 0.0 | 0.00 | 0.00 | 0.00 | 86 | 1019.6 |
| 20260505064504 | 12 | 14 | 0.0 | 0.0 | 0.00 | 0.00 | 0.00 | 87 | 1019.6 |
| 20260505063003 | 11 | 14 | 0.0 | 0.0 | 0.00 | 0.00 | 0.00 | 88 | 1019.5 |
| 20260505061505 | 11 | 14 | 0.0 | 0.0 | 0.00 | 0.00 | 0.00 | 87 | 1019.4 |
| 20260505060001 | 11 | 14 | 0.0 | 0.0 | 0.00 | 0.00 | 0.00 | 86 | 1019.3 |
| 20260505054626 | 12 | 268 | 0.0 | 0.0 | 0.00 | 0.00 | 0.00 | 85 | 1019.2 |
| 20260505053059 | 12 | 268 | 0.0 | 0.0 | 0.00 | 0.00 | 0.00 | 84 | 1019.1 |
| 20260505051559 | 12 | 268 | 0.0 | 0.0 | 0.00 | 0.00 | 0.00 | 82 | 1019.0 |
| 20260505041555 | 14 | 268 | 0.0 | 0.0 | 0.00 | 0.00 | 0.00 | 77 | 1017.9 |
| 20260505040059 | 15 | 124 | 0.0 | 0.0 | 0.00 | 0.00 | 0.00 | 77 | 1017.6 |
| 20260505034554 | 15 | 100 | 0.0 | 0.0 | 0.00 | 0.00 | 0.00 | 74 | 1017.3 |
| 20260505033055 | 16 | 100 | 0.0 | 0.0 | 0.00 | 0.00 | 0.00 | 72 | 1017.1 |
| 20260505031556 | 17 | 120 | 0.0 | 0.0 | 0.00 | 0.00 | 0.00 | 70 | 1016.7 |
| 20260505030053 | 17 | 270 | 0.0 | 0.0 | 0.00 | 0.00 | 0.00 | 68 | 1016.4 |